AO-07
1 07530U 74089B 25339.95342259 -.00000037 00000-0 57189-4 0 9999
2 07530 101.9966 346.1498 0012331 139.4197 286.9470 12.53694024336305


Ligne 0
Le nom commun de l'objetAO-07
Ligne 1
Numéro de catalogue satellite07530U
Désignateur international74089B
Année de lancement74
Numéro de lancement dans l'année089
Object du lancementB
Époque (année)25
Époque (Jour de l'année en UTC)339.95342259
1ère dérivée du mouvement moyen-.00000037
2ème dérivée du mouvement moyen 00000-0
B * Terme de glissement 57189-4
Type de jeu d'éléments0
Numéro d'élément 999
Ligne 2
Numéro de catalogue satellite07530
Inclinaison de l'orbite (degrés)101.9966
Ascension droite du nœud ascendant (degrés)346.1498
Excentricité0012331
Argument du Périgée (degrés)139.4197
Anomalie moyenne (degrés)286.9470
Mouvement moyen (révolutions / jour)12.53694024
Numéro de révolution à l'époque33630
Valeurs déduites
Période Orbitale (en minutes)114.9 min.
Demi-grand axe (en kilomètres)7827.2 Km
Altitude à l‘Apogée (en kilomètres)1465.9 Km
Altitude au Périgée (en kilomètres)1446.6 Km

* Sources des TLE's : Celestrack